[Iaude] MPEC C96: 2018 CE3 [a=2.22,e=0.55,i=1.8,H=27.5]

mpec at mpcdb1.cfa.harvard.edu mpec at mpcdb1.cfa.harvard.edu
Mon Feb 12 11:03:36 EST 2018


M.P.E.C. 2018-C96                                Issued 2018 Feb. 12, 16:00 UT
 
     The Minor Planet Electronic Circulars contain information on unusual
         minor planets and routine data on comets.  They are published
    on behalf of Division F of the International Astronomical Union by the
          Minor Planet Center, Smithsonian Astrophysical Observatory,
                          Cambridge, MA 02138, U.S.A.

             Prepared using the Tamkin Foundation Computer Network

                              MPC at CFA.HARVARD.EDU
            URL https://www.minorplanetcenter.net/    ISSN 1523-6714


                                   2018 CE3
 
Observations:
     K18C03E* C2018 02 10.31473 10 28 08.98 +28 50 43.5          20.1 GUEC096G96
     K18C03E  C2018 02 10.31992 10 28 19.89 +28 50 22.8          20.4 GUEC096G96
     K18C03E  C2018 02 10.32510 10 28 30.91 +28 50 01.2                UEC096G96
     K18C03E  C2018 02 10.33028 10 28 41.76 +28 49 40.7          20.2 GUEC096G96
     K18C03E  C2018 02 10.40070 10 31 09.96 +28 44 34.3          21.2 GUEC096I52
     K18C03E  C2018 02 10.40166 10 31 12.04 +28 44 30.4          20.6 GUEC096I52
     K18C03E  C2018 02 10.40263 10 31 14.16 +28 44 26.3                UEC096I52
     K18C03E  C2018 02 10.40360 10 31 16.13 +28 44 20.2                UEC096I52
     K18C03E KC2018 02 10.95157410 52 04.59 +27 56 15.5          20.8 VSEC096L01
     K18C03E IC2018 02 10.95416610 52 10.29 +27 56 00.6          20.5 VSEC096L01
     K18C03E KC2018 02 10.95728910 52 17.06 +27 55 42.6          20.6 VSEC096L01
     K18C03E  C2018 02 11.34123 11 06 48.58 +27 16 09.0          20.5 GUEC096I52
     K18C03E  C2018 02 11.34267 11 06 51.80 +27 16 00.0                UEC096I52
     K18C03E  C2018 02 11.34412 11 06 54.86 +27 15 51.0                UEC096I52
     K18C03E KC2018 02 12.06133111 33 54.38 +25 41 25.5                UEC096J95
     K18C03E KC2018 02 12.06572211 34 03.78 +25 40 47.3          20.8 GUEC096J95
 
Observer details:
G96 Mt. Lemmon Survey.  Observer D. C. Fuls.  Measurers E. J. Christensen,
    D. C. Fuls, A. R. Gibbs, A. D. Grauer, J. A. Johnson, R. A. Kowalski,
    S. M. Larson, G. J. Leonard, R. G. Matheny, R. L. Seaman, F. C. Shelly.
    1.5-m reflector + 10K CCD.
I52 Steward Observatory, Mt. Lemmon Station.  Observer J. A. Johnson.
    Measurers E. J. Christensen, D. C. Fuls, A. R. Gibbs, A. D. Grauer,
    J. A. Johnson, R. A. Kowalski, S. M. Larson, G. J. Leonard, R. G. Matheny,
    R. L. Seaman, F. C. Shelly.  1.0-m reflector + CCD.
J95 Great Shefford.  Observer P. Birtwhistle.  0.40-m f/6.0 Schmidt-Cassegrain
    + CCD.
L01 Visnjan Observatory, Tican.  Observer K. Korlevic.  1.0-m f/2.9 reflector
    + CCD.
 
Orbital elements:
2018 CE3                                                 Earth MOID = 0.0222 AU
Epoch 2018 Mar. 23.0 TT = JDT 2458200.5                 MPC
M   9.23828              (2000.0)            P               Q
n   0.29729223     Peri.   27.24999     -0.89132591     -0.45262859
a   2.2233799      Node   125.81410     +0.40994387     -0.82895600
e   0.5473991      Incl.    1.82299     +0.19360822     -0.32857162
P   3.32           H   27.5           G   0.15           U   7
Residuals in seconds of arc
180210 G96  0.6-  0.2+    180210 I52  0.9+  0.7+    180211 I52 (2.7+  1.1+)
180210 G96  0.6-  0.2+    180210 I52  0.2-  0.9-    180211 I52 (1.9+  1.8+)
180210 G96  1.0+  0.5-    180210 L01 (1.2-  0.4+)   180212 J95  0.1+  0.5+
180210 G96  0.5+  0.1+    180210 L01  0.4-  0.0     180212 J95  0.1-  0.5-
180210 I52  0.7-  0.2-    180210 L01  0.8-  0.5-
180210 I52  0.0   0.4+    180211 I52  1.1+  0.4+

Ephemeris:
2018 CE3                 a,e,i = 2.22, 0.55, 2                   q = 1.0063
Date    TT    R. A. (2000) Decl.     Delta      r     Elong.  Phase     V
2018 01 13    06 08 11.0 +19 19 19   0.1363  1.1119   159.1    18.4    24.4
...
2018 01 28    06 41 00.7 +23 06 34   0.06996 1.0469   151.7    26.5    23.0
...
2018 02 05    08 00 37.1 +28 09 54   0.04043 1.0238   159.3    19.9    21.6
...
2018 02 11    10 53 45.5 +27 53 18   0.02772 1.0126   157.6    21.8    20.8
2018 02 12    11 31 32.5 +25 52 34   0.02739 1.0113   151.5    27.8    20.9
2018 02 13    12 07 48.2 +23 16 08   0.02770 1.0101   144.9    34.2    21.2
...
2018 02 19    14 29 47.5 +07 04 18   0.03995 1.0064   115.5    62.4    22.7
...
2018 02 27    15 34 50.6 -02 33 55   0.06738 1.0103   105.4    70.9    24.1
...
2018 03 14    16 08 02.7 -08 06 29   0.1221  1.0441   111.0    62.7    25.3

A. U. Tomatic                (C) Copyright 2018 MPC           M.P.E.C. 2018-C96



More information about the Iaude mailing list